Location: Unspecified
(47.6578°N, 23.5640°E)
Time: 03:04:50
(UTC+03:00)

ISS - Pass Details

Date: 27 January 2018
Orbit: 408 x 419 km, 51.6° (Epoch: 21 June)

Event Time Altitude Azimuth Distance (km) Brightness Sun altitude
Rises 18:51:27 0° 253° (WSW) 2,357 1.9 -15.6°
Reaches altitude 10° 18:53:32 10° 256° (WSW) 1,503 0.4 -15.9°
Maximum altitude 18:56:54 69° 340° (NNW) 461 -3.6 -16.5°
Enters shadow 18:57:58 40° 51° (NE) 649 -3.3 -16.7°
